Location: Township of South Roscoe
(37.9570°N, 100.1180°W)
Time: 04:40:41
(UTC+00:00)

PRISM - Pass Details

Date: 29 June 2022
Orbit: 554 x 578 km, 98.2° (Epoch: 14 August)

Event Time Altitude Azimuth Distance (km) Brightness Sun altitude
Rises 10:37:30 0° 34° (NE) 2,743 ? -7.9°
Reaches altitude 10° 10:40:30 10° 59° (ENE) 1,840 ? -7.4°
Maximum altitude 10:42:43 14° 93° (E) 1,567 ? -7.1°
Drops below altitude 10° 10:44:56 10° 128° (SE) 1,831 ? -6.7°
Sets 10:47:54 0° 153° (SSE) 2,720 ? -6.3°
